Вернуться в каталог

TRANSIT 11 DEB

АктивенPO
NORAD 11991·DEBRIS·🇺🇸 United States

Запущен Jan 28, 1966 с Vandenberg Space Force Base

Loading…

Ближайшие Пролёты (ближайшие 24 часа)

TLE

СвежийSource: Space-Track

Эпоха: Sep 14, 2026, 04:38 UTC

1 11991U 66005H   26257.19332855  .00000418  00000-0  31911-3 0  9997
2 11991  90.1631 343.9999 0176222  68.7695 320.9383 13.84976247 33724

Отслеживайте TRANSIT 11 DEB в реальном времени с AllMySat

Download on the App Store